Tracking 19245 objects as of 14-Aug-2018
HD Live streaming from Space Station
objects crossing your sky now

FENGYUN 1C DEB

Track FENGYUN 1C DEB now!
10-day predictions


NORAD ID: 29801
Int'l Code: 1999-025CT
Perigee: 710.4 km
Apogee: 863.3 km
Inclination: 98.9 °
Period: 100.4 minutes
Semi major axis: 7157 km
RCS: 0.105 m2 (medium)
Launch date: May 10, 1999
Source: People's Republic of China (PRC)
Launch site: Taiyaun Space Center, China (TSC)

Note: This is SATELLITE DEBRIS
aabbcc
Your satellite tracking list
Your tracking list is empty




NASA's NSSDC Master Catalog

Two Line Element Set (TLE):
1 29801U 99025CT  18224.38852859 +.00000011 +00000-0 +19989-4 0  9992
2 29801 098.8898 006.1275 0106812 201.6570 217.3190 14.33599582605476
Source of the keplerian elements: AFSPC